"Pseudo-MPEC" for P115JRd

Created 2020 Sep 18 10:07:20 UT using Find_Orb

Click here for an explanation of pseudo-MPECs

 
 Astrometry: 
     P115JRd  C2020 09 10uF26jEYNdR2bC$$eIqC:l9!t:j?-,E9'EKq5p+[]*wZ.UEWBKM['F51
     P115JRd  C2020 09 10Gvq@]#?v^e!/TL:raQ^2dm1AtTGGiNHeEhIby:M!I['Tho0[usGpF51
     P115JRd  C2020 09 10G!qnjE0D_3!2:(gcH\q6+\pA1jh'kiS`3xVwwo0wpwlx0bgFYW+;F51
     P115JRd  C2020 09 10NLLr:.c];#K9ZH6OYhF0ZDND`;DtMO5UVMp$j.?nY2N'#W`EWJ%yF51
     P115JRd  C2020 09 13#n!6A*v`v#WTnesx_j%!@aYj@5iCQ8xBY)H0iD3x[?Kw=dAw'w=hF51
     P115JRd  C2020 09 13VaAstrometry/E+,PC+rVht@W.2piQuAredacted;I`A9clickq/F51
     P115JRd  C2020 09 13IXn=%E`0qqherexl7/dyu[C'0dPJPkt!!CYs8wx77b..:T$?yyTBF51
     P115JRd  C2020 09 15d`05A:;;[^uUPL-g=JPd*BIYB#VHBp317M7RiMk\ADCcam9g2wGTF51
     P115JRd  C2020 09 15![v$kya21S9#_\PPT2LRUi:#\[5Y]iZrf9c?9$+KWDN=[XG5DshyF51
     P115JRd  C2020 09 15b\VD=kXT[8L!Qfor5@E:KpKIxh*06@Tcb-LDexplanationdJ;U(F51

Station data:
(F51) Pan-STARRS 1, Haleakala  (N20.707235 W156.255910)  US/Hawaii.
   Observers N. Primak, A. Schultz, S. Watters, J. Thiel, T. Goggia. Measurer
   PS1 Science Consortium. 1.8-m Ritchey-Chrétien + CCD.

Orbital elements:  P115JRd
   Perihelion 2021 Jan 16.570382 +/- 0.548 TT = 13:41:21 (JD 2459231.070382)
Epoch 2020 Sep 15.0 TT = JDT 2459107.5   Earth MOID: 0.7825   AutoNEOCP
M 331.48672160 +/- 0.31             (J2000 ecliptic)
n   0.23074524 +/- 0.00193          Peri.  254.59730 +/- 0.24
a   2.63257573 +/- 0.0147           Node   141.54490 +/- 0.014
e   0.3965462 +/- 0.0045            Incl.   28.84903 +/- 0.23
P   4.27                   H 20.3   G  0.15   U  8.5  
q 1.58863766 +/- 0.00777    Q 3.67651379 +/- 0.0306
From 10 observations 2020 Sept. 10-15; mean residual 0".12
Residuals in arcseconds: 
200910 F51  .05-  .16+    200913 F51  .07-  .07+    200915 F51  .12-  .08+    
200910 F51  .14-  .26+    200913 F51  .04+  .05+    200915 F51  .14+  .05-    
200910 F51  .17+  .20-    200913 F51  .02+  .11-    
200910 F51  .02+  .22-    200915 F51  .02-  .03-    

Ephemerides (geocentric):
Date (UTC) HH   RA              Dec         delta   r     elong  mag " sig PA
---- -- -- --  -------------   -----------  ------ ------ -----  --- ---- ---
2020 09 18 10  21 00 31.633   -28 10 28.23  1.0386 1.8730 132.9 22.8 1.55  99
2020 09 18 11  21 00 31.148   -28 11 15.64  1.0388 1.8728 132.8 22.8 1.58  99
2020 09 18 12  21 00 30.668   -28 12 03.01  1.0390 1.8726 132.8 22.8 1.61  99
2020 09 18 13  21 00 30.192   -28 12 50.34  1.0392 1.8725 132.7 22.8 1.64  99
2020 09 18 14  21 00 29.720   -28 13 37.62  1.0394 1.8723 132.7 22.8 1.66  99
2020 09 18 15  21 00 29.253   -28 14 24.85  1.0396 1.8721 132.6 22.8 1.69  99
2020 09 18 16  21 00 28.789   -28 15 12.03  1.0398 1.8720 132.6 22.8 1.72  99
2020 09 18 17  21 00 28.331   -28 15 59.17  1.0400 1.8718 132.5 22.8 1.75  99
2020 09 18 18  21 00 27.876   -28 16 46.27  1.0401 1.8716 132.5 22.8 1.78  99
2020 09 18 19  21 00 27.426   -28 17 33.32  1.0403 1.8715 132.4 22.8 1.81  99
2020 09 18 20  21 00 26.981   -28 18 20.32  1.0405 1.8713 132.4 22.8 1.84  99
2020 09 18 21  21 00 26.540   -28 19 07.27  1.0407 1.8711 132.3 22.8 1.87  99
2020 09 18 22  21 00 26.103   -28 19 54.18  1.0409 1.8709 132.3 22.8 1.90  99
2020 09 18 23  21 00 25.670   -28 20 41.05  1.0411 1.8708 132.3 22.8 1.93  99
2020 09 19 00  21 00 25.242   -28 21 27.86  1.0413 1.8706 132.2 22.8 1.96  99
2020 09 19 01  21 00 24.818   -28 22 14.63  1.0415 1.8704 132.2 22.8 1.99  99
2020 09 19 02  21 00 24.399   -28 23 01.36  1.0417 1.8703 132.1 22.8 2.02  99
2020 09 19 03  21 00 23.984   -28 23 48.04  1.0419 1.8701 132.1 22.8 2.05  99
2020 09 19 04  21 00 23.573   -28 24 34.67  1.0421 1.8699 132.0 22.8 2.08  99
2020 09 19 05  21 00 23.167   -28 25 21.26  1.0423 1.8698 132.0 22.8 2.11  99
2020 09 19 06  21 00 22.765   -28 26 07.80  1.0425 1.8696 131.9 22.8 2.14  99
2020 09 19 07  21 00 22.367   -28 26 54.29  1.0427 1.8694 131.9 22.8 2.17  99
2020 09 19 08  21 00 21.974   -28 27 40.74  1.0429 1.8693 131.8 22.8 2.20  99
2020 09 19 09  21 00 21.585   -28 28 27.14  1.0431 1.8691 131.8 22.8 2.24  99
2020 09 19 10  21 00 21.201   -28 29 13.49  1.0433 1.8689 131.7 22.8 2.27  99
2020 09 19 11  21 00 20.821   -28 29 59.80  1.0435 1.8688 131.7 22.8 2.30  99
2020 09 19 12  21 00 20.445   -28 30 46.07  1.0437 1.8686 131.7 22.8 2.33  99
2020 09 19 13  21 00 20.074   -28 31 32.28  1.0439 1.8684 131.6 22.9 2.37  99
2020 09 19 14  21 00 19.708   -28 32 18.45  1.0441 1.8683 131.6 22.9 2.40  99
2020 09 19 15  21 00 19.345   -28 33 04.58  1.0443 1.8681 131.5 22.9 2.43  99
2020 09 19 16  21 00 18.987   -28 33 50.65  1.0445 1.8679 131.5 22.9 2.47  99
2020 09 19 17  21 00 18.634   -28 34 36.68  1.0447 1.8677 131.4 22.9 2.50  98
2020 09 19 18  21 00 18.285   -28 35 22.67  1.0449 1.8676 131.4 22.9 2.54  98
2020 09 19 19  21 00 17.940   -28 36 08.61  1.0451 1.8674 131.3 22.9 2.57  98
2020 09 19 20  21 00 17.600   -28 36 54.50  1.0453 1.8672 131.3 22.9 2.60  98
2020 09 19 21  21 00 17.264   -28 37 40.35  1.0455 1.8671 131.2 22.9 2.64  98
2020 09 19 22  21 00 16.933   -28 38 26.14  1.0457 1.8669 131.2 22.9 2.67  98
2020 09 19 23  21 00 16.606   -28 39 11.90  1.0459 1.8667 131.1 22.9 2.71  98
2020 09 20 00  21 00 16.283   -28 39 57.60  1.0461 1.8666 131.1 22.9 2.74  98
2020 09 20 01  21 00 15.965   -28 40 43.26  1.0463 1.8664 131.1 22.9 2.78  98
2020 09 20 02  21 00 15.651   -28 41 28.88  1.0465 1.8662 131.0 22.9 2.82  98
2020 09 20 03  21 00 15.342   -28 42 14.45  1.0467 1.8661 131.0 22.9 2.85  98
2020 09 20 04  21 00 15.037   -28 42 59.97  1.0469 1.8659 130.9 22.9 2.89  98
2020 09 20 05  21 00 14.737   -28 43 45.44  1.0471 1.8657 130.9 22.9 2.93  98
2020 09 20 06  21 00 14.441   -28 44 30.87  1.0473 1.8656 130.8 22.9 2.96  98
2020 09 20 07  21 00 14.150   -28 45 16.25  1.0475 1.8654 130.8 22.9 3.00  98
2020 09 20 08  21 00 13.863   -28 46 01.59  1.0477 1.8652 130.7 22.9 3.04  98
2020 09 20 09  21 00 13.580   -28 46 46.88  1.0479 1.8651 130.7 22.9 3.07  98